Theta_e
296 296 296 296 295 295 295 295 295 294 294 293 293 293 293 293 293 293 293 293 294 295 301 304 307 310 311 311 312 313 315 316 317 318 318 321 327 329 328 331 330 332 335
296 295 296 295 295 294 294 294 294 294 293 293 293 292 292 292 292 292 293 294 295 296 297 303 305 306 307 308 310 311 312 313 314 315 316 318 321 323 326 329 330 331 333
295 295 295 295 294 294 294 293 293 293 292 292 292 292 292 292 292 292 293 294 295 297 298 298 302 303 305 307 308 308 309 311 312 313 314 315 316 317 320 325 328 329 331
294 295 295 294 294 293 293 293 293 293 292 292 292 292 292 292 292 292 292 294 296 296 296 298 298 297 301 303 305 307 308 312 314 315 314 313 311 313 314 316 321 328 329
294 294 294 294 293 293 293 293 292 292 291 291 291 291 291 291 291 292 295 292 292 294 294 296 296 297 297 302 303 302 304 305 305 307 309 314 316 317 317 318 318 320 323
293 293 293 293 293 293 293 292 291 290 290 289 290 290 290 290 290 292 293 291 291 294 293 295 297 297 297 297 298 301 300 302 307 305 304 307 311 314 315 314 316 318 323
292 293 292 292 292 292 292 291 290 289 289 289 289 289 290 290 292 290 291 290 291 291 292 292 292 292 293 294 294 295 300 302 301 299 304 302 303 308 309 310 313 314 317
292 292 292 292 291 291 290 290 290 289 289 288 287 288 287 289 292 290 290 290 290 291 290 289 288 288 289 289 293 296 295 295 295 300 300 298 300 302 304 305 307 309 315
291 291 291 291 290 290 289 289 289 289 288 287 287 287 286 287 287 289 288 289 289 289 288 287 287 288 288 288 288 289 290 293 295 296 295 297 300 302 301 300 302 305 310
291 291 291 290 290 289 288 288 288 289 288 287 287 287 288 288 286 286 287 287 288 286 286 286 287 287 287 287 288 288 289 291 292 293 295 298 297 297 297 299 301 303 305
290 289 289 289 289 289 288 287 287 288 288 287 286 285 285 285 286 286 286 286 285 285 285 286 285 286 287 287 287 287 289 291 293 293 293 294 295 297 298 299 300 301 302
289 288 289 288 288 288 288 287 287 287 287 286 285 284 284 284 285 285 284 284 283 284 285 285 285 286 286 286 287 287 288 289 289 289 290 291 292 293 295 297 298 300 301
289 288 288 288 287 287 287 286 286 286 286 285 284 283 283 283 283 283 283 283 283 283 284 285 285 285 285 286 286 285 285 285 285 286 287 289 290 291 293 294 296 297 298
289 288 288 287 287 287 286 286 286 285 285 284 283 282 282 282 282 282 282 282 282 283 284 284 284 285 285 284 282 282 281 281 282 283 284 285 287 288 290 291 292 293 295
289 289 288 287 286 286 286 286 285 284 284 283 282 281 281 281 281 281 281 280 281 281 282 283 283 284 282 280 280 279 278 278 280 281 281 282 283 285 286 288 290 291 293
289 289 288 286 286 285 285 284 284 283 283 282 282 281 280 280 279 278 278 277 277 278 278 281 280 279 278 277 277 277 276 277 276 277 278 279 281 282 284 286 287 289 290
290 289 288 286 285 285 284 283 283 282 283 282 281 280 279 278 278 276 275 275 275 275 276 277 278 276 275 275 275 275 274 274 275 276 277 278 280 281 282 284 285 286 288
289 289 287 286 285 284 283 282 282 281 282 281 280 279 278 276 276 275 274 274 273 273 273 274 274 274 274 274 274 274 274 274 275 275 276 278 279 281 282 284 285 286 287
289 287 287 286 284 283 282 282 281 281 281 280 279 278 277 275 274 273 273 272 272 272 272 272 273 273 273 273 274 274 274 275 275 276 277 277 278 280 281 283 284 285 286
288 287 285 285 284 283 282 280 280 280 280 279 278 276 275 274 274 273 272 272 272 271 271 272 272 273 273 274 275 275 276 277 277 277 277 277 278 279 280 281 283 285 287
287 286 285 284 283 282 280 280 279 280 279 277 276 275 275 273 273 273 272 272 273 273 272 272 273 274 275 276 277 276 276 276 276 277 277 277 278 279 280 281 282 283 283
285 284 283 282 281 280 280 279 280 279 277 277 276 275 273 273 273 274 275 275 276 275 275 275 276 277 276 276 276 277 277 276 276 276 276 277 277 277 278 279 280 281 282
282 281 280 280 279 279 279 278 277 278 277 276 275 273 273 273 273 273 273 275 275 276 276 276 276 276 276 276 276 276 276 276 276 276 276 277 277 277 278 278 279 281 282
280 279 278 278 279 279 279 280 278 278 277 275 274 273 273 273 273 273 274 274 274 274 275 275 276 276 276 276 276 277 277 277 277 278 277 277 277 278 278 278 279 281 282
278 277 277 277 277 278 279 280 279 276 275 274 274 273 273 273 273 275 275 275 275 275 276 276 275 275 276 276 275 274 274 274 275 275 275 277 278 279 279 280 280 281 283
277 276 275 276 277 277 278 279 278 276 274 274 274 274 274 274 275 276 276 276 276 275 274 274 274 273 271 270 271 272 272 272 273 274 276 277 278 279 279 279 280 281 281
Wind_Speed
19 16 13 11 8 5 3 4 6 7 8 9 10 10 12 12 13 13 14 15 14 12 12 12 12 12 12 13 14 15 17 16 16 17 18 19 16 15 18 20 21 23 26
20 17 15 12 9 6 3 3 5 7 8 9 10 11 12 13 14 16 15 11 11 10 9 11 11 12 13 12 13 14 15 16 17 17 17 17 16 16 17 18 20 23 25
21 19 17 14 11 7 4 2 4 5 6 9 10 12 14 14 17 14 12 12 11 9 10 11 12 12 12 12 13 14 16 16 16 16 16 17 19 21 20 19 19 20 24
23 21 19 16 11 7 4 1 3 5 8 11 13 14 15 16 15 12 11 10 11 12 13 11 11 15 14 14 13 14 16 15 15 14 14 15 18 20 22 24 23 20 21
24 22 20 16 13 9 5 2 2 5 8 11 15 17 17 16 12 10 7 14 16 11 13 12 12 14 15 13 14 18 17 19 19 19 18 17 16 17 17 18 18 22 24
25 24 22 18 14 11 7 3 1 2 6 11 16 16 19 8 10 4 10 17 15 9 11 12 12 12 14 15 20 14 22 20 15 18 21 21 18 18 18 20 20 20 19
28 26 24 20 17 13 9 6 4 1 4 11 11 19 8 8 7 13 10 15 10 8 8 9 14 17 16 16 17 21 15 17 23 27 19 20 22 21 19 21 22 22 22
30 28 26 22 18 15 12 8 6 3 3 9 8 4 4 6 8 11 9 7 11 13 18 19 23 20 20 19 15 16 23 25 28 22 23 28 25 24 23 22 23 24 23
31 29 26 23 20 16 13 11 8 5 5 4 8 3 3 2 9 5 9 11 20 17 18 31 26 18 22 25 21 22 22 22 21 24 28 27 23 21 23 28 27 26 25
33 31 28 25 22 18 17 14 10 5 4 4 6 4 2 3 3 5 6 25 18 32 30 28 23 28 26 21 21 23 23 22 23 25 24 22 25 29 32 29 28 29 28
34 32 29 27 25 22 18 16 13 9 4 4 4 3 1 3 6 5 6 14 29 23 26 21 30 24 20 23 24 24 23 22 22 23 26 29 28 27 28 29 29 31 32
38 35 32 29 26 23 20 18 14 10 7 4 3 4 5 3 2 2 3 7 17 29 34 24 27 22 21 21 20 19 19 24 27 29 31 32 32 31 31 30 30 31 34
45 42 37 33 29 24 20 18 15 11 7 6 6 6 6 7 8 11 11 11 6 13 10 22 16 17 16 12 14 25 24 27 30 31 32 34 36 35 32 33 34 34 36
45 44 40 36 31 26 23 20 16 12 9 8 7 6 6 7 8 9 9 11 7 5 14 4 13 11 4 20 27 28 31 31 31 35 38 39 39 39 37 37 39 40 39
43 42 41 36 32 29 26 23 19 15 11 8 7 7 6 8 8 9 9 8 4 4 5 1 4 4 24 29 25 29 32 37 35 35 37 38 41 42 40 41 41 40 40
40 40 41 38 34 31 27 24 21 17 13 10 9 8 7 8 11 12 14 12 11 11 5 4 16 26 21 29 30 29 30 33 35 36 37 38 39 39 39 40 41 42 43
41 41 43 40 37 33 29 26 22 19 15 13 12 10 10 12 12 12 12 11 12 11 12 23 16 26 29 31 31 33 33 35 36 35 38 38 38 38 40 40 42 43 44
41 41 43 43 40 36 32 29 25 22 18 16 14 13 12 12 12 12 12 13 12 12 13 26 27 27 30 32 35 36 36 35 37 38 39 38 38 38 39 39 40 41 42
41 42 45 46 42 38 34 29 26 23 19 17 16 15 14 13 14 13 10 11 11 12 15 22 38 30 33 33 38 37 38 39 37 35 36 37 37 37 37 38 40 41 42
44 45 46 45 43 39 35 31 27 23 19 17 16 15 14 14 14 13 11 12 12 16 19 24 32 36 33 34 33 36 38 35 36 37 40 37 38 38 39 38 36 38 36
44 47 48 46 44 40 37 33 29 26 22 19 17 15 15 14 13 12 11 13 15 18 19 23 28 33 34 31 28 36 40 43 39 34 38 33 34 33 34 35 37 38 39
43 46 48 49 45 40 36 33 31 27 23 20 18 15 14 13 14 14 15 15 18 21 22 23 25 29 39 36 34 35 39 36 21 34 33 39 34 40 38 37 40 42 44
45 45 45 46 44 40 32 28 27 26 23 19 16 13 12 10 10 9 13 14 19 22 26 30 33 33 42 39 42 43 40 41 43 45 41 42 39 42 40 42 44 45 44
46 44 44 45 43 40 31 31 27 25 21 19 16 15 11 9 10 11 13 18 23 26 27 30 32 36 40 39 39 43 46 46 48 43 33 22 41 38 43 44 44 43 42
37 39 42 42 40 38 29 30 28 25 21 18 15 11 9 10 12 12 16 21 26 27 25 28 35 38 38 41 46 47 42 35 25 46 36 37 47 40 40 38 39 40 41
32 32 36 39 40 40 31 29 26 26 24 20 14 11 11 14 12 13 17 23 21 23 26 31 27 33 37 37 33 31 33 31 31 24 28 33 36 32 18 37 37 37 41
Wind_Direction
182 177 174 170 161 141 114 51 30 23 15 7 1 352 347 345 341 336 334 330 327 335 334 336 339 341 336 334 329 323 318 316 313 312 306 291 289 294 292 284 277 271 260
189 183 181 176 171 162 127 63 35 18 5 358 351 345 342 337 334 331 330 342 350 354 353 345 343 347 343 344 338 333 328 321 320 317 311 308 308 292 279 281 282 276 269
193 190 186 182 178 168 140 90 43 18 1 352 343 337 333 333 331 335 341 339 346 5 18 14 347 343 346 350 344 339 335 331 323 321 320 320 316 308 289 279 275 276 273
197 193 190 187 179 168 160 99 21 1 357 345 338 337 332 331 332 339 344 354 0 350 357 359 354 348 348 343 338 348 340 336 337 334 328 325 322 319 316 296 287 280 273
198 198 193 188 181 180 176 159 20 360 351 339 333 331 332 326 330 337 17 13 347 342 354 353 341 348 349 351 347 338 334 330 324 322 326 332 330 323 322 324 310 303 288
202 199 196 191 186 186 180 176 168 3 351 343 335 332 328 330 326 27 355 341 351 10 19 15 12 351 338 328 332 337 325 320 329 330 324 324 323 313 316 314 314 312 305
204 201 198 193 190 190 184 181 175 100 17 360 352 340 352 344 113 1 344 351 1 36 9 349 342 336 334 328 321 311 319 321 317 316 313 319 320 315 315 315 309 307 308
205 203 201 196 193 190 188 188 193 163 73 22 25 359 355 342 268 338 347 12 2 346 334 336 332 319 311 319 320 311 311 309 310 312 308 313 312 308 301 309 307 303 297
208 206 202 200 197 195 193 193 194 173 130 92 31 62 353 301 318 285 340 5 332 344 336 326 333 337 327 320 318 317 316 316 312 305 308 312 310 304 306 306 303 298 292
210 208 204 201 201 198 197 195 193 179 137 113 94 117 168 282 340 321 314 329 337 323 334 333 336 326 326 332 331 326 321 316 312 310 312 310 305 302 301 300 297 292 289
212 210 206 204 202 201 198 198 192 184 174 146 147 181 294 300 267 241 310 321 323 324 333 326 321 332 337 336 335 335 330 325 319 315 312 309 308 306 300 297 293 290 288
211 210 208 209 207 204 200 199 198 192 172 179 200 212 210 218 212 274 279 286 286 314 313 325 330 336 337 341 338 331 320 318 316 314 311 308 304 300 295 294 291 290 286
211 209 206 205 206 205 202 199 196 194 186 199 209 226 240 246 264 286 283 292 282 297 291 319 345 337 334 331 324 316 318 317 313 310 309 304 300 296 295 293 289 285 283
214 212 207 206 203 200 199 198 203 206 196 199 208 225 242 263 277 291 297 318 311 259 284 266 307 343 321 318 316 319 314 313 313 310 306 301 298 294 291 287 285 283 281
217 214 210 205 202 200 199 200 202 204 202 206 209 215 242 262 270 277 285 295 298 309 309 224 273 224 310 313 312 314 309 313 313 308 302 300 295 290 287 284 283 282 280
219 215 209 205 202 200 199 201 202 202 199 201 217 227 241 264 277 280 281 281 276 263 280 288 293 303 310 309 312 309 307 308 306 305 303 299 294 291 288 286 282 279 276
220 216 207 202 201 200 201 201 203 206 202 196 212 222 237 249 254 266 273 279 278 269 276 293 301 307 307 312 311 309 310 306 304 304 300 296 296 294 288 283 280 278 275
217 214 206 202 201 201 202 203 203 205 202 197 206 220 229 239 244 252 261 268 268 269 277 295 301 307 309 310 307 309 307 302 299 295 296 299 297 292 288 284 281 279 276
214 208 206 203 201 201 202 205 206 206 201 202 208 215 219 226 242 249 251 258 267 280 283 286 294 304 303 309 309 306 302 299 294 295 296 299 295 290 287 284 283 281 279
210 208 207 205 205 203 203 202 202 202 199 205 209 214 217 226 233 241 253 260 272 283 283 280 287 297 302 304 300 299 300 298 297 297 295 290 291 289 286 283 281 279 278
210 209 205 205 205 203 203 200 203 200 198 200 207 217 228 228 228 234 240 264 277 275 263 271 281 291 294 298 298 300 294 297 294 294 295 292 291 287 283 282 280 277 280
204 205 206 204 202 203 203 202 204 198 198 202 210 217 222 223 229 233 245 253 261 266 263 264 277 286 288 292 296 295 294 295 297 295 287 287 288 284 280 275 274 276 279
201 201 202 204 202 202 197 191 194 198 198 204 210 213 217 223 233 242 246 258 266 270 273 280 281 283 290 292 294 291 284 282 279 282 284 284 283 277 278 275 274 275 277
194 195 200 202 203 202 189 187 185 195 197 203 210 218 223 231 238 242 260 265 270 269 271 275 276 284 285 286 283 286 287 279 278 279 271 270 281 276 279 274 273 274 274
188 191 198 198 200 200 189 187 183 195 199 207 210 218 229 238 242 254 269 276 278 276 283 283 287 288 288 289 290 294 288 291 288 285 281 276 279 278 276 275 274 271 273
187 187 190 200 202 201 188 190 187 195 193 198 201 213 223 239 251 260 273 277 279 290 296 297 289 288 295 297 293 281 282 282 281 283 284 260 271 275 278 273 275 268 271